SCP
0 0 0 0 0 0 0 0 0 0 0 0 0 0 0 0 0 0 0 0 0 0
0 0 0 0 0 0 0 0 0 0 0 0 0 0 0 0 0 0 0 0 0 0
0 0 0 0 0 0 0 0 0 0 0 0 0 0 0 0 0 0 0 0 0 0
0 0 0 0 0 0 0 0 0 0 0 0 0 0 0 0 0 0 0 0 0 0
0 0 0 0 0 0 0 0 0 0 0 0 0 0 0 0 0 0 0 0 0 0
0 0 0 0 0 0 0 0 0 0 0 0 0 0 0 0 0 0 0 0 0 0
0 0 0 0 0 0 0 0 0 0 0 0 0 0 0 0 0 0 0 0 0 0
0 0 0 0 0 0 -0 -0 -0 -0 -0 0 0 0 0 0 0 0 0 0 0 0
0 0 0 -0 -0 -0 -0 -0 -0 -0 -0 -0 -0 0 0 0 0 0 0 0 0 0
0 0 -0 -0 -0 -0 -0 -0 -0 -0 -0 -0 -0 0 0 0 0 0 0 0 0 0
0 0 0 0 0 -0 -0 -0 -0 -0 -0 -0 -0 0 0 0 0 0 0 0 0 0
0 0 0 0 0 -0 -0 -0 -0 -0 -0 -0 0 0 0 0 0 0 0 0 0 0
0 0 0 -0 -0 -0 -0 -0 -0 -0 -0 -0 -0 -0 0 0 0 0 0 0 0 0
0 0 0 0 -0 -0 0 0 0 -0 -0 -0 -0 -0 0 0 0 0 0 0 0 0
Wind_Speed_500mb
18 14 9 8 8 11 16 23 31 37 43 45 46 48 51 53 55 58 63 64 65 71
23 19 18 16 15 15 17 17 20 25 31 38 41 44 48 54 60 60 62 67 68 68
30 27 23 20 18 20 20 21 23 21 23 30 34 36 40 46 53 56 62 71 76 73
26 24 23 23 25 26 29 31 35 36 36 34 34 36 39 44 48 53 58 65 72 78
23 23 24 28 30 32 34 35 35 36 36 36 38 39 40 44 44 51 58 61 66 76
22 25 28 32 36 38 39 40 41 42 43 44 45 45 46 49 54 57 58 59 65 69
29 33 36 38 39 41 44 46 47 49 50 51 50 50 53 58 61 63 66 67 67 67
39 40 43 48 52 54 56 57 58 59 59 56 56 57 61 64 67 72 75 73 74 76
46 51 54 56 60 62 66 69 72 74 75 74 72 67 64 67 75 78 80 84 83 82
45 50 54 59 63 67 70 72 75 78 81 83 80 78 80 79 78 82 86 87 89 89
45 51 56 60 63 67 72 75 78 80 81 83 82 79 77 75 81 85 83 85 89 92
52 55 58 62 66 69 72 73 74 73 71 70 69 70 71 72 77 80 84 84 79 75
46 51 55 59 63 65 67 69 69 65 61 62 66 66 65 65 72 82 89 92 92 90
39 42 46 48 53 58 58 57 60 66 69 68 69 69 62 65 69 75 89 97 103 104
Wind_Direction_500mb
82 81 65 37 3 325 307 300 292 288 284 285 289 289 287 284 285 285 284 282 281 281
81 72 57 45 27 9 349 337 330 321 313 305 301 295 289 290 288 287 286 285 283 282
64 63 58 49 38 20 15 358 352 345 336 322 313 308 299 294 293 290 289 288 282 284
48 40 31 21 15 6 1 354 350 346 342 332 325 323 311 299 291 286 288 288 286 285
23 16 5 357 353 348 344 340 336 332 328 324 322 321 314 306 303 294 286 282 282 286
1 354 354 350 346 343 341 338 336 331 329 326 324 320 314 308 304 301 296 292 284 279
351 355 354 352 349 346 341 337 336 334 331 326 323 320 314 308 303 298 295 295 294 290
357 353 351 347 344 342 341 340 337 334 331 327 323 320 313 308 304 301 297 294 292 291
351 352 350 347 346 344 342 340 339 337 334 330 328 324 319 314 307 303 301 298 295 293
355 354 354 352 349 346 345 343 341 338 336 335 333 331 325 320 312 309 305 302 300 296
1 0 358 355 352 350 349 347 345 342 339 335 334 330 325 320 315 311 311 309 306 305
8 6 2 359 358 357 356 354 353 347 341 335 333 330 328 327 322 317 310 305 303 306
12 8 8 6 5 3 2 1 356 353 352 354 356 355 348 344 333 324 318 312 310 308
16 12 12 9 6 3 358 355 354 358 2 2 1 358 352 348 342 333 324 318 315 311
Wind_Speed_850mb
18 14 9 8 8 11 16 23 31 37 43 45 46 48 51 53 55 58 63 64 65 71
23 19 18 16 15 15 17 17 20 25 31 38 41 44 48 54 60 60 62 67 68 68
30 27 23 20 18 20 20 21 23 21 23 30 34 36 40 46 53 56 62 71 76 73
26 24 23 23 25 26 29 31 35 36 36 34 34 36 39 44 48 53 58 65 72 78
23 23 24 28 30 32 34 35 35 36 36 36 38 39 40 44 44 51 58 61 66 76
22 25 28 32 36 38 39 40 41 42 43 44 45 45 46 49 54 57 58 59 65 69
29 33 36 38 39 41 44 46 47 49 50 51 50 50 53 58 61 63 66 67 67 67
39 40 43 48 52 54 56 57 58 59 59 56 56 57 61 64 67 72 75 73 74 76
46 51 54 56 60 62 66 69 72 74 75 74 72 67 64 67 75 78 80 84 83 82
45 50 54 59 63 67 70 72 75 78 81 83 80 78 80 79 78 82 86 87 89 89
45 51 56 60 63 67 72 75 78 80 81 83 82 79 77 75 81 85 83 85 89 92
52 55 58 62 66 69 72 73 74 73 71 70 69 70 71 72 77 80 84 84 79 75
46 51 55 59 63 65 67 69 69 65 61 62 66 66 65 65 72 82 89 92 92 90
39 42 46 48 53 58 58 57 60 66 69 68 69 69 62 65 69 75 89 97 103 104
Wind_Direction_850mb
82 81 65 37 3 325 307 300 292 288 284 285 289 289 287 284 285 285 284 282 281 281
81 72 57 45 27 9 349 337 330 321 313 305 301 295 289 290 288 287 286 285 283 282
64 63 58 49 38 20 15 358 352 345 336 322 313 308 299 294 293 290 289 288 282 284
48 40 31 21 15 6 1 354 350 346 342 332 325 323 311 299 291 286 288 288 286 285
23 16 5 357 353 348 344 340 336 332 328 324 322 321 314 306 303 294 286 282 282 286
1 354 354 350 346 343 341 338 336 331 329 326 324 320 314 308 304 301 296 292 284 279
351 355 354 352 349 346 341 337 336 334 331 326 323 320 314 308 303 298 295 295 294 290
357 353 351 347 344 342 341 340 337 334 331 327 323 320 313 308 304 301 297 294 292 291
351 352 350 347 346 344 342 340 339 337 334 330 328 324 319 314 307 303 301 298 295 293
355 354 354 352 349 346 345 343 341 338 336 335 333 331 325 320 312 309 305 302 300 296
1 0 358 355 352 350 349 347 345 342 339 335 334 330 325 320 315 311 311 309 306 305
8 6 2 359 358 357 356 354 353 347 341 335 333 330 328 327 322 317 310 305 303 306
12 8 8 6 5 3 2 1 356 353 352 354 356 355 348 344 333 324 318 312 310 308
16 12 12 9 6 3 358 355 354 358 2 2 1 358 352 348 342 333 324 318 315 311